TIME,DELAY(SENSOR),PRES,OXYGEN,RAWTEMP,T(OPTODE),TCPHASE,FLUOR,BETA(BETA700),BETA(BETA412),BETA(BETA440),CDOM,C(CSC),ED(ED411.90),ED(ED443.80),ED(ED489.40),ED(ED554.70),LU(LU412.20),LU(LU443.80),LU(LU489.40),LU(LU555.00),COMP,TILTX,TILTY,CHECK
1347314514,5804,906.5900268554688000,167.1443939208984400,440.7012939453125000,9.7254285812377930,39.6652603149414060,51,107,98,82,73,15181,2147452800,2147786541,2147576301,2147820150,2147306432,2147454902,2147746413,2148269458,1274,6,13,29773
1347318110,5801,11.8999996185302730,198.9835968017578000,508.3915100097656000,7.6172127723693850,38.6757316589355500,51,107,99,82,74,15158,2147438454,2147795108,2147582628,2147828662,2147302838,2147451117,2147763995,2148279003,2287,6,14,3924
1347321710,5804,13.5000000000000000,206.6833038330078000,516.3449096679688000,7.3675751686096190,38.3479499816894500,51,118,100,82,75,15162,2147433097,2147797339,2147587794,2147829110,2147304045,2147447360,2147762724,2148279113,3240,6,15,42837
1347325310,5808,14.6999998092651370,207.6296997070312500,517.5805053710938000,7.3287529945373535,38.3129882812500000,51,107,98,83,75,15159,2147436406,2147796708,2147586395,2147828361,2147303378,2147452635,2147758016,2148279945,49,6,14,27679
1347328910,5804,15.1000003814697270,207.8831939697265600,518.6594238281250000,7.2948441505432130,38.3169784545898440,51,104,99,82,74,15159,2147438756,2147797348,2147585069,2147831634,2147302555,2147446509,2147765723,2148284288,375,6,14,10679
1347332510,5802,14.6000003814697270,207.1206054687500000,516.0023193359375000,7.3783369064331055,38.3160285949707000,51,106,100,82,75,15151,2147433801,2147799707,2147584612,2147827730,2147305554,2147449792,2147760905,2148278427,1272,6,14,61936
1347336110,5804,14.6000003814697270,206.5886993408203000,517.4522094726562000,7.3327832221984860,38.3724708557128900,52,106,100,82,73,15152,2147436434,2147797321,2147584320,2147831972,2147304658,2147448512,2147763666,2148279424,3507,6,15,52011
1347339710,5803,14.6999998092651370,207.1045074462890600,518.3787231445312000,7.3036651611328125,38.3582191467285160,51,105,101,82,74,15152,2147435181,2147798555,2147583552,2147833581,2147306614,2147449846,2147763721,2148281609,489,6,14,44359
1347343310,5804,12.6000003814697270,203.4485015869140600,511.4695129394531000,7.5206561088562010,38.4556503295898440,52,106,100,81,74,15151,2147437558,2147796333,2147585984,2147828224,2147302153,2147454582,2147759040,2148279076,264,6,14,38200
1347346910,5803,10.1000003814697270,203.6764984130859400,512.6890869140625000,7.4823780059814450,38.4636802673339840,50,107,99,82,75,15152,2147435053,2147795849,2147580022,2147828745,2147305755,2147448292,2147762998,2148279341,2742,6,14,61113
1347350510,5804,12.3999996185302730,203.9833068847656200,512.7965698242188000,7.4790019989013670,38.4471015930175800,52,108,98,82,75,15150,2147435108,2147796050,2147583323,2147830619,2147302189,2147448978,2147762541,2148280950,2639,6,15,5252
1347354110,5803,12.5000000000000000,203.8610992431640600,512.2755126953125000,7.4953598976135250,38.4454002380371100,52,106,99,82,74,15153,2147433005,2147796397,2147583341,2147828608,2147304621,2147446372,2147763328,2148279003,3008,6,14,31821
1347357710,5803,1267.0000000000000000,203.8213958740234400,512.4757080078125000,7.4890761375427250,38.4513511657714840,51,105,100,81,76,15150,2147437330,2147797513,2147583405,2147828452,2147306075,2147452626,2147761581,2148280365,3397,6,14,35151
1347361310,5804,12.1999998092651370,202.3612976074218800,511.5097045898437500,7.5193929672241210,38.5226783752441400,51,105,100,84,76,15154,2147434742,2147797586,2147584320,2147830976,2147302582,2147453504,2147762944,2148278208,2930,6,14,44438
1347364910,5805,12.0000000000000000,200.7147979736328000,510.5964965820312500,7.5480489730834960,38.6072807312011700,51,105,100,81,75,15152,2147437531,2147796992,2147583341,2147827483,2147305755,2147452004,2147764937,2148275035,3565,6,14,31353
1347368510,5803,12.6000003814697270,201.0881958007812500,510.7479858398437500,7.5432949066162110,38.5869789123535160,50,106,100,82,75,15153,2147436699,2147796315,2147584310,2147829010,2147303689,2147451081,2147761042,2148281033,3361,6,14,47818
1347372110,5805,12.0000000000000000,203.6233978271484400,512.8699951171875000,7.4766998291015625,38.4703712463378900,52,107,100,83,75,15140,2147432713,2147793152,2147585554,2147832438,2147305892,2147446226,2147761718,2148279186,28,6,14,62841
1347375710,5806,12.8000001907348630,204.3110961914062500,512.7161254882812000,7.4815311431884770,38.4257202148437500,51,105,99,81,75,15143,2147432859,2147796132,2147583533,2147829092,2147307858,2147450002,2147758857,2148279012,233,6,14,7533
1347379310,5806,10.0000000000000000,203.1291961669922000,511.9689941406250000,7.5049791336059570,38.4842987060546900,51,111,100,83,75,15201,2147437897,2147797741,2147581568,2147827136,2147304786,2147448329,2147764818,2148282532,574,6,14,17358
1347382910,5805,12.1999998092651370,203.7380065917968800,513.0131835937500000,7.4722018241882320,38.4660415649414060,51,106,99,82,74,15199,2147435977,2147798336,2147584685,2147828306,2147307136,2147448237,2147764598,2148282276,643,6,14,10118
1347386510,5806,12.8999996185302730,204.0101013183593800,513.1115112304688000,7.4691171646118160,38.4512405395507800,51,106,100,82,74,15200,2147437961,2147795702,2147581165,2147829906,2147300425,2147448694,2147759625,2148283410,753,6,14,57598
1347390110,5800,1008.0000000000000000,203.5032958984375000,514.8010253906250000,7.4160680770874020,38.5112991333007800,51,105,100,82,74,15197,2147435657,2147799259,2147583716,2147830683,2147304868,2147447177,2147763245,2148279707,2891,6,14,17533
1347393710,5804,1072.0000000000000000,203.3580932617187500,514.8148803710938000,7.4156332015991210,38.5207901000976560,51,107,99,83,76,15198,2147437019,2147793353,2147580800,2147828233,2147305115,2147447872,2147760603,2148277440,3510,6,14,45604
1347397310,5802,13.1000003814697270,203.6398925781250000,514.7301025390625000,7.4182958602905270,38.5021400451660160,51,106,98,81,75,15193,2147434596,2147799771,2147583808,2147829696,2147307867,2147449746,2147761536,2148279158,3428,6,14,41174
1347400910,5805,10.8000001907348630,203.5429992675781200,514.7539062500000000,7.4175481796264650,38.5082511901855500,51,106,100,83,74,15190,2147435730,2147797083,2147583561,2147831661,2147303652,2147446189,2147758957,2148277138,16,6,14,46529
1347404510,5803,13.1000003814697270,203.6979064941406200,514.7634277343750000,7.4172511100769040,38.4988594055175800,51,103,99,83,75,15190,2147433563,2147798317,2147581513,2147830107,2147304064,2147447734,2147758811,2148279268,186,6,14,37736
1347408110,5805,11.8999996185302730,198.4479980468750000,505.4148864746094000,7.7105288505554200,38.6563301086425800,51,116,99,83,74,15163,2147437586,2147799268,2147581915,2147830500,2147308388,2147448969,2147758464,2148278948,179,6,14,17440
1347411710,5806,11.6999998092651370,197.4049987792968800,505.7073059082031000,7.7013649940490720,38.7257804870605500,50,105,100,82,74,15164,2147434550,2147794779,2147584246,2147829997,2147305746,2147452306,2147758555,2148276763,348,6,14,60748
1347415310,5804,10.6999998092651370,196.8383026123047000,503.8837890625000000,7.7585082054138180,38.7299308776855500,51,107,100,81,75,15160,2147437769,2147796854,2147582134,2147831378,2147306450,2147449261,2147759478,2148277165,722,6,14,4619
1347418910,5804,10.0000000000000000,197.0796051025390600,504.7694091796875000,7.7307600975036620,38.7304687500000000,51,107,99,83,74,15167,2147436032,2147797083,2147585106,2147831341,2147306989,2147450102,2147758546,2148275328,3551,6,14,35343
1347422510,5804,11.5000000000000000,195.6880950927734400,505.0989074707031000,7.7204318046569820,38.8237991333007800,51,104,101,81,73,15160,2147439524,2147794852,2147583021,2147829129,2147305097,2147456091,2147761590,2148278509,3596,6,14,38509
1347426110,5805,1051.0000000000000000,197.0540924072265600,504.5392150878906000,7.7379698753356930,38.7276306152343750,51,106,99,82,75,15162,2147435062,2147794861,2147580964,2147828644,2147305929,2147449216,2147761563,2148277787,1077,6,14,742
1347429710,5804,10.5000000000000000,196.5211944580078000,503.6557922363281000,7.7656488418579100,38.7452392578125000,51,106,99,84,74,15160,2147435968,2147798144,2147584420,2147829641,2147307529,2147455707,2147764288,2148278829,929,6,14,2184
1347433310,5804,11.8999996185302730,196.8394927978515600,503.9125976562500000,7.7576060295104980,38.7301597595214840,51,106,100,82,75,15149,2147437174,2147793828,2147580443,2147826432,2147306532,2147454363,2147761700,2148276086,1170,6,14,42405
1347436910,5805,11.8999996185302730,197.3798980712890600,504.2817993164062500,7.7460370063781740,38.7033500671386700,51,106,99,83,74,15162,2147437741,2147798720,2147582976,2147827894,2147307940,2147453275,2147758848,2148276964,2037,6,14,52013
1347440510,5806,11.5000000000000000,196.9597015380859400,505.5444946289062500,7.7064700126647950,38.7514610290527340,51,106,100,84,75,15156,2147439323,2147792987,2147582198,2147829942,2147306560,2147451712,2147757229,2148277549,304,6,14,11089
1347444110,5803,1041.0000000000000000,198.3762969970703000,505.6603088378906000,7.7028398513793945,38.6651916503906250,52,105,100,82,74,15158,2147437851,2147799058,2147581897,2147830080,2147304932,2147451053,2147763273,2148277558,147,6,15,37358
1347447710,5805,12.8000001907348630,195.6049041748047000,504.2842102050781000,7.7459611892700195,38.8139495849609400,51,107,99,83,74,15157,2147437769,2147792292,2147585078,2147825033,2147307072,2147453824,2147764690,2148278400,426,6,14,54823
1347451310,5804,11.1999998092651370,194.5299072265625000,504.1911926269531000,7.7488760948181150,38.8802490234375000,52,105,99,81,75,15158,2147436992,2147797211,2147585097,2147831652,2147308242,2147453686,2147761572,2148276992,220,6,14,54939
1347454910,5805,11.3000001907348630,198.2422027587890600,506.0638122558594000,7.6901907920837400,38.6801300048828100,51,106,99,84,74,15151,2147433536,2147792832,2147582683,2147827437,2147306011,2147450715,2147758966,2148278665,183,6,14,31530
1347456656,5804,10.0000000000000000,199.0151062011718800,506.7749938964844000,7.6679000854492190,38.6451301574707000,51,106,100,82,75,15155,2147435638,2147798116,2147584347,2147828269,2147304274,2147452626,2147760996,2148279945,3521,6,14,13756
